March 15-17, 2018
|
Charlotte-Irwin Belk T&F Center - Charlotte, NC

Women's 800 Meters

Top↑
PL NAME YEAR TEAM TIME TIME
1 Ericka Charles Senior G.W.Express/Nike 2:09.88 2:41.06
2 Helene Holm Gottlieb FR-1 Temple 2:09.93 2:48.91
3 Roshae Jackson JR-3 Campbell 2:11.97 1:49.54
4 Kaitlyn Lingard JR-3 Western Carolina 2:12.34 1:39.26
5 Katie Fortner SR-4 Clemson 2:13.31 1:49.32
6 Maiah Yankello SO-2 Duquesne 2:13.47 2:20.15
7 Phylissa Greeley SR-4 Appalachian State 2:13.83 1:56.44
8 Dana Maydew SR-4 Clemson 2:14.33 2:30.45
9 Brittany Stanley SO-2 Charlotte 2:14.95 2:14.95
10 Jasmine Fehr FR-1 Edinboro 2:15.13 1:42.70
11 Sophia Mills JR-3 Davidson 2:15.29 1:50.94
12 Madison Paraskeva SO-2 Wofford 2:15.59 2:34.58
13 Harper Henson SO-2 Winthrop 2:16.18 2:44.78
14 Paige Keefer FR-1 Towson 2:16.31 2:08.14
15 Bridget Abbatiello SO-2 Charlotte 2:16.65 1:54.79
16 Barkley Castro SR-4 Marshall 2:17.01 1:42.76
17 Destiny Stanford FR-1 Howard 2:18.02 1:54.56
18 Paiton Fair JR-3 Lenoir-Rhyne 2:18.02 1:54.56
19 Maddie Hunter FR-1 Davidson 2:18.39 2:33.62
20 Amanda Famularo SR-4 Towson 2:18.54 1:52.22
21 Erica Stone SO-2 Milligan 2:19.33 2:56.95
22 Erin Durnin JR-3 Duquesne 2:19.37 1:44.53
23 Christina Nikolaou JR-3 Western Carolina 2:20.10 2:15.90
24 Florence Fields SO-2 St. Augustine's 2:20.97 1:54.19
25 Jazmyne Williams FR-1 Temple 2:21.30 2:04.35
26 Jamie Barnett JR-3 Wofford 2:21.33 2:21.33
27 McKenzie Gelvin FR-1 Temple 2:21.50 2:25.75
28 D'Amani Bryant FR-1 Western Carolina 2:21.83 2:53.04
29 Larkin Joseph JR-3 Capital 2:22.55 2:25.41
30 Gina Kowalewicz FR-1 Otterbein 2:22.86 2:38.58
31 Kaydi Ann Wint SO-2 Shaw 2:23.06 2:11.62
32 Tiffany Woods JR-3 Towson 2:23.08 2:50.27
33 Madeline Armstrong SR-4 Marshall 2:23.08 2:43.12
34 Audrey Grammel FR-1 Davidson 2:23.55 2:20.68
35 Alexis Leech FR-1 Pittsburgh 2:23.75 2:05.07
36 Tia Robinson SO-2 Clemson 2:24.10 3:03.01
37 Kelly Whittaker SR-4 Charleston (W.V.) 2:24.47 2:43.26
38 Sommer McKenzie SO-2 Wofford 2:24.62 2:04.38
39 Zuwena Johnson JR-3 Bowie State 2:24.88 3:06.90
40 Shelby Bobbie SO-2 Towson 2:24.95 2:53.94
41 Colbie Williamson FR-1 East Tenn. St. 2:25.01 1:51.66
42 Sophie Niekamp FR-1 Kenyon 2:25.30 1:48.98
43 Ann Mosely Whitsett FR-1 Appalachian State 2:25.54 2:41.55
44 Jordan Hauser FR-1 Edinboro 2:25.58 3:00.52
45 Fatima Pedroza SR-4 USC Upstate 2:25.73 1:53.67
46 Brittany Carratura FR-1 East Stroudsburg 2:25.80 2:05.39
47 Marie Rulapaugh FR-1 Duquesne 2:25.95 2:59.52
48 Rosa Rumora JR-3 Kenyon 2:26.06 2:30.45
49 Allison Rogiers SO-2 Otterbein 2:26.30 3:01.42
50 Jessica Price SO-2 Shawnee State 2:26.34 2:19.03
51 Delaney Williams SO-2 Berea 2:26.49 2:03.06
52 Kylie Dahlberg FR-1 Lenoir-Rhyne 2:27.22 2:12.50
53 Hayley Singletary JR-3 Southern Wesleyan 2:27.51 3:05.87
54 Madison MacElrevey JR-3 Otterbein 2:27.69 2:40.99
55 Alyssa Long FR-1 Marshall 2:27.78 1:53.79
56 Abbey Peters JR-3 Edinboro 2:28.46 2:18.07
57 Desiree Garland SR-4 Pittsburgh 2:28.59 3:10.20
58 Abbigail Dorn SO-2 Morehead State 2:28.85 2:18.43
59 Morgan Harvey SR-4 Pittsburgh 2:28.96 3:04.71
60 Le'anna Combo FR-1 Johnson C. Smith 2:29.57 2:10.13
61 Zoey Vilasuso SR-4 West Virginia Wesleyan 2:29.57 2:07.14
62 Jennae Jacob FR-1 Appalachian State 2:29.68 1:52.26
63 Shamia Thompson JR-3 USC Upstate 2:29.69 2:01.25
64 Brianna Ritz SO-2 West Liberty 2:30.28 2:33.29
65 Laila Ismail SR-4 Pittsburgh 2:30.29 2:16.77
66 Jasmine Hardy JR-3 Howard 2:30.30 3:13.89
67 Emily O'Connor FR-1 Cumberlands 2:30.39 2:48.44
68 Rebeka Parent JR-3 Wofford 2:30.51 2:00.41
69 Jade Hardy JR-3 Howard 2:30.70 2:02.07
70 Lea Hartwig FR-1 Catawba 2:30.80 2:53.42
71 Kayla Wright JR-3 Bowie State 2:31.15 2:41.73
72 Kelsey Ballou JR-3 Winthrop 2:31.26 2:07.06
73 Maggie Kiper FR-1 Morehead State 2:31.40 2:11.72
74 Jadyn Slaughter FR-1 North Greenville 2:31.50 2:05.75
75 Mary Watts FR-1 Otterbein 2:31.52 3:16.98
76 Sommer Fanney JR-3 Guilford 2:31.83 2:19.69
77 Jenna Hughes JR-3 Berea 2:32.65 2:29.60
78 Tiffany Hutson SR-4 Limestone 2:32.83 2:26.72
79 Chloe Harp FR-1 Lincoln Memorial 2:32.98 2:10.04
80 Michayla Weitman JR-3 East Stroudsburg 2:33.37 1:56.57
81 Natalie Wiethe SO-2 West Virginia Wesleyan 2:33.37 3:14.78
82 Kelsey Warren SR-4 USC Upstate 2:34.26 1:55.70
83 Kaleigh Roach JR-3 North Greenville 2:34.80 2:20.87
84 Ivie Nobles SO-2 Truett-McConnell 2:34.83 2:27.09
85 Kaelyn Yoder JR-3 Campbell 2:34.86 2:05.44
86 Alexandra Palumbo SO-2 East Stroudsburg 2:35.04 2:41.25
87 Laura Blake SR-4 West Virginia Wesleyan 2:35.09 2:53.70
88 Tashay Roberts JR-3 Shaw 2:35.21 2:30.56
89 Adie Bjerkness FR-1 Lenoir-Rhyne 2:35.61 2:18.50
90 Madison Owings FR-1 UNC-Greensboro 2:36.56 2:08.38
91 Abbigail Khan FR-1 Appalachian State 2:36.72 2:55.53
92 Meghan Goldman FR-1 West Virginia Tech 2:37.83 2:39.41
93 Jane Macsay SR-4 Converse 2:37.98 2:49.04
94 Kayla Achenbach SO-2 Southern Wesleyan 2:38.20 2:23.97
95 Audrey McCormick SO-2 King 2:38.30 2:11.39
96 Kayla Wetherell JR-3 UNC-Greensboro 2:38.43 2:03.58
97 Nikki Scheman SR-4 Kenyon 2:38.74 1:52.71
98 Unique Earley FR-1 Lincoln Memorial 2:38.78 3:18.48
99 Hanna Feuer FR-1 Kenyon 2:38.93 2:40.52
100 Marykate Longmire SO-2 Lincoln Memorial 2:39.36 2:28.21
101 Isabel Salinas SO-2 Montreat 2:40.03 2:35.23
102 Hayden Fobare FR-1 Tusculum 2:40.51 1:52.36
103 Kristiana Sklioutovskaya-Lopez SO-2 Charleston (W.V.) 2:40.64 2:31.01
104 Andrea Burns SO-2 Glenville St. 2:40.91 2:05.51
105 Lillian Perella FR-1 West Virginia Wesleyan 2:41.36 2:02.64
106 Alyssa Hamilton SO-2 Cumberlands 2:41.39 2:54.31
107 Elizabeth Noland SO-2 Converse 2:41.68 2:07.73
108 Libby Jennette SR-4 USC Upstate 2:41.91 1:54.96
109 Kaitlyn Phillippo FR-1 Southern Wesleyan 2:42.44 3:14.93
110 Shanley Amick JR-3 Charleston (W.V.) 2:43.20 2:38.31
111 Rachel Graham FR-1 King 2:45.04 2:13.69
112 Olena Kosenko SR-4 Montreat 2:46.25 2:13.00
113 Erian Hamilton SO-2 Notre Dame (Ohio) 2:46.44 3:06.42
114 Alexis Carter FR-1 Truett-McConnell 2:47.63 2:25.84
115 Damoni Neal FR-1 Shaw 2:48.86 3:24.32
  Rebecca Wendt SR-4 West Virginia DNF DNF
  Imani McGowan JR-3 Clemson DNF DNF
  Brittany OgunMokun   Unattached DNF DNF
Women's 800 Meters Section 1
PL NAME YEAR TEAM TIME TIME TIME TIME TIME TIME TIME
1 Ericka Charles Senior G.W.Express/Nike 2:09.88 1:46.51 2:35.86 2:04.69 2:09.88 1:58.19 2:03.39
2 Helene Holm Gottlieb FR-1 Temple 2:00.84 1:37.45 2:46.31 1:47.85 2:09.93 1:47.85 1:38.75
3 Roshae Jackson JR-3 Campbell 2:13.29 1:49.54 1:56.14 2:38.37 2:11.97 2:37.05 1:40.30
5 Katie Fortner SR-4 Clemson 2:38.64 2:39.98 2:13.31 2:09.31 2:13.31 1:42.65 2:27.98
6 Maiah Yankello SO-2 Duquesne 2:24.15 1:52.12 2:01.46 2:53.52 2:13.47 1:56.12 1:34.77
7 Phylissa Greeley SR-4 Appalachian State 2:01.79 2:16.51 2:37.92 2:08.48 2:13.83 2:45.95 2:00.45
8 Dana Maydew SR-4 Clemson 1:47.47 1:44.78 2:33.14 1:54.18 2:14.33 2:34.48 1:36.72
10 Jasmine Fehr FR-1 Edinboro 2:17.84 1:38.65 2:19.19 1:37.30 2:15.13 2:46.21 2:01.62
  Imani McGowan JR-3 Clemson DNF DNF DNF DNF DNF DNF DNF
  Brittany OgunMokun   Unattached DNF DNF DNF DNF DNF DNF DNF
Women's 800 Meters Section 2
PL NAME YEAR TEAM TIME TIME TIME TIME TIME TIME
4 Kaitlyn Lingard JR-3 Western Carolina 2:11.02 1:37.94 2:13.67 2:12.34 2:37.49 2:28.22
9 Brittany Stanley SO-2 Charlotte 2:48.69 2:39.24 2:21.70 2:14.95 1:45.27 2:06.86
12 Madison Paraskeva SO-2 Wofford 2:11.53 2:19.66 1:56.61 2:15.59 2:03.39 2:02.04
13 Harper Henson SO-2 Winthrop 2:35.25 2:05.29 1:44.86 2:16.18 2:21.63 2:25.72
16 Barkley Castro SR-4 Marshall 2:21.12 2:14.27 2:43.05 2:17.01 2:12.90 2:32.09
19 Maddie Hunter FR-1 Davidson 2:19.78 2:05.94 1:43.80 2:18.39 2:47.46 1:45.18
20 Amanda Famularo SR-4 Towson 2:55.95 2:18.54 1:52.22 2:18.54 2:51.79 2:57.34
36 Tia Robinson SO-2 Clemson 2:26.99 2:06.81 2:39.96 2:24.10 2:50.04 2:06.81
56 Abbey Peters JR-3 Edinboro 2:19.56 2:49.25 2:21.04 2:28.46 1:46.90 2:35.89
  Rebecca Wendt SR-4 West Virginia DNF DNF DNF DNF DNF DNF
Women's 800 Meters Section 3
PL NAME YEAR TEAM TIME TIME
14 Paige Keefer FR-1 Towson 2:16.31 2:14.95
15 Bridget Abbatiello SO-2 Charlotte 2:16.65 2:22.12
18 Paiton Fair JR-3 Lenoir-Rhyne 2:18.02 2:19.40
22 Erin Durnin JR-3 Duquesne 2:19.37 2:26.34
23 Christina Nikolaou JR-3 Western Carolina 2:20.10 2:39.72
24 Florence Fields SO-2 St. Augustine's 2:20.97 2:30.84
29 Larkin Joseph JR-3 Capital 2:22.55 2:43.94
35 Alexis Leech FR-1 Pittsburgh 2:23.75 2:25.19
57 Desiree Garland SR-4 Pittsburgh 2:28.59 2:36.02
66 Jasmine Hardy JR-3 Howard 2:30.30 3:13.89
Women's 800 Meters Section 4
PL NAME YEAR TEAM TIME TIME TIME TIME TIME
11 Sophia Mills JR-3 Davidson 2:15.29 2:03.12 2:20.71 2:18.00 2:15.29
17 Destiny Stanford FR-1 Howard 2:15.26 2:15.26 2:18.02 2:45.63 2:18.02
21 Erica Stone SO-2 Milligan 2:34.66 2:19.33 2:52.77 2:34.66 2:19.33
25 Jazmyne Williams FR-1 Temple 1:57.28 2:43.91 1:47.39 2:29.78 2:21.30
26 Jamie Barnett JR-3 Wofford 2:24.16 3:03.73 2:46.77 2:28.40 2:21.33
28 D'Amani Bryant FR-1 Western Carolina 2:57.29 2:43.11 2:43.11 1:47.79 2:21.83
30 Gina Kowalewicz FR-1 Otterbein 2:24.29 2:42.86 2:54.29 2:17.15 2:22.86
33 Madeline Armstrong SR-4 Marshall 2:30.24 1:53.04 2:25.95 1:48.74 2:23.08
38 Sommer McKenzie SO-2 Wofford 2:00.04 3:05.12 2:21.73 2:21.73 2:24.62
40 Shelby Bobbie SO-2 Towson 1:50.17 1:53.06 1:48.72 2:38.00 2:24.95
41 Colbie Williamson FR-1 East Tenn. St. 2:10.51 2:09.06 2:39.52 1:41.51 2:25.01
59 Morgan Harvey SR-4 Pittsburgh 2:23.01 2:42.37 2:52.80 3:03.22 2:28.96
65 Laila Ismail SR-4 Pittsburgh 1:48.21 2:22.78 2:54.34 2:04.74 2:30.29
85 Kaelyn Yoder JR-3 Campbell 3:13.58 2:20.93 2:10.09 3:13.58 2:34.86
Women's 800 Meters Section 5
PL NAME YEAR TEAM TIME TIME TIME TIME TIME
27 McKenzie Gelvin FR-1 Temple 2:21.50 1:41.88 2:52.63 2:48.39 2:21.50
31 Kaydi Ann Wint SO-2 Shaw 2:23.06 3:04.55 2:58.83 3:05.98 1:48.73
32 Tiffany Woods JR-3 Towson 2:23.08 1:54.47 2:15.93 2:58.85 2:30.24
39 Zuwena Johnson JR-3 Bowie State 2:24.88 1:44.32 2:04.60 1:58.81 2:59.66
43 Ann Mosely Whitsett FR-1 Appalachian State 2:25.54 2:31.37 2:00.80 2:45.92 3:03.38
44 Jordan Hauser FR-1 Edinboro 2:25.58 2:43.05 2:13.94 2:45.97 3:09.26
48 Rosa Rumora JR-3 Kenyon 2:26.06 1:59.77 2:15.84 3:09.88 2:42.13
49 Allison Rogiers SO-2 Otterbein 2:26.30 2:35.08 2:52.64 2:02.90 1:45.34
54 Madison MacElrevey JR-3 Otterbein 2:27.69 1:49.29 2:18.83 2:09.97 2:51.32
58 Abbigail Dorn SO-2 Morehead State 2:28.85 2:05.04 3:03.09 3:01.60 2:45.23
69 Jade Hardy JR-3 Howard 2:30.70 1:54.54 2:50.29 2:17.14 2:14.13
72 Kelsey Ballou JR-3 Winthrop 2:31.26 3:16.64 2:37.31 2:52.44 1:57.99
77 Jenna Hughes JR-3 Berea 2:32.65 2:15.86 2:17.39 2:23.49 2:00.60
88 Tashay Roberts JR-3 Shaw 2:35.21 2:27.45 3:04.70 2:19.69 2:56.94
Women's 800 Meters Section 6
PL NAME YEAR TEAM TIME TIME TIME TIME
37 Kelly Whittaker SR-4 Charleston (W.V.) 1:54.14 2:41.81 2:24.47 2:27.36
42 Sophie Niekamp FR-1 Kenyon 1:44.62 3:00.18 2:25.30 3:00.18
45 Fatima Pedroza SR-4 USC Upstate 1:46.39 2:12.62 2:25.73 3:08.00
46 Brittany Carratura FR-1 East Stroudsburg 2:24.35 2:22.89 2:25.80 2:19.97
47 Marie Rulapaugh FR-1 Duquesne 1:55.30 1:46.55 2:25.95 2:02.60
52 Kylie Dahlberg FR-1 Lenoir-Rhyne 2:49.31 2:39.00 2:27.22 1:43.06
61 Zoey Vilasuso SR-4 West Virginia Wesleyan 3:03.98 1:46.20 2:29.57 1:50.69
63 Shamia Thompson JR-3 USC Upstate 2:32.69 1:59.76 2:29.69 2:58.14
68 Rebeka Parent JR-3 Wofford 1:45.36 2:33.52 2:30.51 2:03.42
76 Sommer Fanney JR-3 Guilford 2:31.83 2:45.50 2:31.83 2:48.54
83 Kaleigh Roach JR-3 North Greenville 2:44.09 1:56.10 2:34.80 3:07.31
104 Andrea Burns SO-2 Glenville St. 1:55.86 2:40.91 2:40.91 3:21.14
113 Erian Hamilton SO-2 Notre Dame (Ohio) 2:54.77 3:34.71 2:46.44 3:08.08
115 Damoni Neal FR-1 Shaw 2:42.11 2:38.73 2:48.86 3:37.83
Women's 800 Meters Section 7
PL NAME YEAR TEAM TIME TIME TIME TIME TIME
34 Audrey Grammel FR-1 Davidson 2:55.14 1:46.23 2:52.26 1:41.92 2:23.55
50 Jessica Price SO-2 Shawnee State 1:52.69 2:17.56 2:48.30 2:01.47 2:26.34
51 Delaney Williams SO-2 Berea 2:25.03 3:07.51 2:39.68 3:08.98 2:26.49
55 Alyssa Long FR-1 Marshall 2:18.92 1:43.45 1:47.88 2:23.35 2:27.78
62 Jennae Jacob FR-1 Appalachian State 2:50.64 2:19.21 2:29.68 2:16.21 2:29.68
64 Brianna Ritz SO-2 West Liberty 2:07.74 2:01.73 2:10.75 2:48.32 2:30.28
71 Kayla Wright JR-3 Bowie State 2:44.76 3:01.38 2:53.83 3:07.43 2:31.15
73 Maggie Kiper FR-1 Morehead State 2:49.57 3:07.74 3:07.74 2:52.60 2:31.40
75 Mary Watts FR-1 Otterbein 2:05.77 2:36.07 3:15.46 2:57.28 2:31.52
78 Tiffany Hutson SR-4 Limestone 3:00.34 2:51.17 2:29.78 1:46.99 2:32.83
80 Michayla Weitman JR-3 East Stroudsburg 1:48.90 3:17.85 2:34.91 2:13.44 2:33.37
82 Kelsey Warren SR-4 USC Upstate 2:45.06 3:14.37 2:45.06 2:52.78 2:34.26
84 Ivie Nobles SO-2 Truett-McConnell 1:49.93 2:27.09 3:11.99 2:11.61 2:34.83
94 Kayla Achenbach SO-2 Southern Wesleyan 2:20.80 2:01.82 3:20.92 2:41.37 2:38.20
101 Isabel Salinas SO-2 Montreat 2:52.84 3:21.64 2:57.64 2:19.23 2:40.03
108 Libby Jennette SR-4 USC Upstate 2:04.67 2:41.91 2:37.06 2:35.44 2:41.91
Women's 800 Meters Section 8
PL NAME YEAR TEAM TIME TIME TIME TIME TIME TIME
53 Hayley Singletary JR-3 Southern Wesleyan 2:27.51 2:18.66 2:31.94 2:21.61 1:43.26 1:59.49
60 Le'anna Combo FR-1 Johnson C. Smith 2:29.57 2:34.06 2:29.57 3:02.48 3:05.47 2:55.00
74 Jadyn Slaughter FR-1 North Greenville 2:31.50 3:15.44 2:34.53 3:03.32 2:17.87 2:11.81
81 Natalie Wiethe SO-2 West Virginia Wesleyan 2:33.37 3:05.58 3:08.65 3:13.25 3:07.12 2:54.85
86 Alexandra Palumbo SO-2 East Stroudsburg 2:35.04 3:07.60 1:53.18 3:07.60 2:00.94 2:25.74
87 Laura Blake SR-4 West Virginia Wesleyan 2:35.09 2:22.69 3:09.21 2:52.15 2:22.69 2:00.97
89 Adie Bjerkness FR-1 Lenoir-Rhyne 2:35.61 2:34.06 2:49.62 2:13.83 2:40.28 3:09.85
90 Madison Owings FR-1 UNC-Greensboro 2:36.56 2:22.47 3:12.57 2:49.09 1:55.86 2:14.65
91 Abbigail Khan FR-1 Appalachian State 2:36.72 2:46.13 2:58.66 3:20.61 3:09.64 2:27.32
92 Meghan Goldman FR-1 West Virginia Tech 2:37.83 1:55.22 3:17.29 2:23.63 2:28.36 2:07.85
93 Jane Macsay SR-4 Converse 2:37.98 3:09.58 3:23.80 2:50.62 1:58.49 2:15.87
96 Kayla Wetherell JR-3 UNC-Greensboro 2:38.43 3:06.95 2:11.50 2:25.76 2:05.16 2:03.58
99 Hanna Feuer FR-1 Kenyon 2:38.93 3:07.54 3:17.08 2:43.70 2:50.06 3:25.02
100 Marykate Longmire SO-2 Lincoln Memorial 2:39.36 1:56.34 2:23.43 3:12.83 3:16.02 2:12.27
106 Alyssa Hamilton SO-2 Cumberlands 2:41.39 3:05.60 2:49.46 2:55.92 2:23.64 2:15.57
Women's 800 Meters Section 9
PL NAME YEAR TEAM TIME TIME TIME TIME TIME TIME
67 Emily O'Connor FR-1 Cumberlands 1:54.30 2:52.95 2:40.92 2:30.39 1:49.79 2:31.90
70 Lea Hartwig FR-1 Catawba 2:12.71 1:50.09 2:45.88 2:30.80 2:35.33 2:38.34
79 Chloe Harp FR-1 Lincoln Memorial 2:58.99 2:51.34 2:22.28 2:32.98 2:05.45 2:19.22
95 Audrey McCormick SO-2 King 2:20.89 3:14.71 2:52.55 2:38.30 1:50.81 2:08.23
97 Nikki Scheman SR-4 Kenyon 3:20.02 3:13.67 3:02.56 2:38.74 2:21.28 3:26.37
98 Unique Earley FR-1 Lincoln Memorial 2:32.43 3:16.89 2:51.49 2:38.78 2:22.91 1:54.33
102 Hayden Fobare FR-1 Tusculum 2:40.51 2:13.23 2:26.07 2:40.51 3:27.06 2:56.57
103 Kristiana Sklioutovskaya-Lopez SO-2 Charleston (W.V.) 2:29.40 1:57.27 2:51.89 2:40.64 2:16.55 1:54.06
105 Lillian Perella FR-1 West Virginia Wesleyan 2:10.71 3:05.57 3:24.93 2:41.36 3:15.25 1:52.96
107 Elizabeth Noland SO-2 Converse 3:22.10 2:02.88 3:09.17 2:41.68 2:51.38 2:10.96
109 Kaitlyn Phillippo FR-1 Southern Wesleyan 2:18.08 2:35.95 3:16.56 2:42.44 2:50.57 3:14.93
110 Shanley Amick JR-3 Charleston (W.V.) 2:30.15 2:54.63 1:57.51 2:43.20 2:21.99 3:06.05
111 Rachel Graham FR-1 King 1:57.18 2:08.74 2:54.95 2:45.04 3:04.85 3:06.50
112 Olena Kosenko SR-4 Montreat 2:57.89 3:32.80 2:49.58 2:46.25 2:32.95 2:44.59
114 Alexis Carter FR-1 Truett-McConnell 2:04.05 3:27.87 2:47.63 2:47.63 2:50.99 2:40.93